STARLINK-35278, 65902

Orbit data source: Space-Track

STARLINK-35278, 65902 is a payload satellite owned by SpaceX/Seattle (US) in LEO that was launched on Tue, 07 Oct 2025 UTC via an FALCON 9 launch vehicle from the Air Force Eastern Test Range (AFETR). Payload-class satellites include a variety of spacecraft equipped with specific instruments for various scientific and technological missions. These include communications satellites like Starlink; space stations such as the ISS; scientific satellites like the Hubble; Earth observation satellites from companies like Planet Labs, Umbra, and HawkEye 360; GPS; miniature CubeSats for education and research; and military/defense satellites.

Loading next visibility...
Identifier
65902, 2025-224W
Orbit
LEO
Country
Flag of USUS
Related business
Manufacturer
SpaceX/Seattle
Mission
Operational spacecraft
Bus & Motor
STARLINK V2MO, Unknown motor
Mass
575 kg wet, ~530 kg dry
Launch date (UTC)
2025-10-07 (2 months ago)
Launch vehicle
FALCON 9
Launch site
Air Force Eastern Test Range (AFETR)
Object type
Payload
Rocket body
Debris
Shape & HBR
Unknown shape, 17.7 m
Radar Cross Section
RCS unknown

Expand to show TLE details & history
Last TLE update: 15 hours ago

TLE from 15 hours ago
0 STARLINK-35278
1 65902U 25224W   25340.57013545  .00051986  00000-0  17522-2 0  9999
2 65902  53.1622  84.1287 0001090  68.3287 291.7830 15.30253787 10616
Epoch: 2025-12-06T13:40Z
TLE epoch observation values (Epoch: 2025-12-06T13:40:59.702Z)
Latitude
-0.00003°
Longitude
163.28394°
Altitude
475.677 km
Speed
7.629 km/s
True Right ascension
05h 36m 30s
True Declination
0° 00' 00"
Sunlit
Object was in full shadow at epoch
Visualization orbit readout
Latitude
Unknown
Longitude
Unknown
Altitude
Unknown
Speed
Unknown
Apparent Right ascension
Unknown
Apparent Declination
Unknown
Sunlit
N/A
Visualization observer readout
Local Sidereal Time
03:13:15
Azimuth
Unknown
Elevation
Unknown
Doppler factor
Unknown
Orbital elements
Apogee altitude
476.058 km
Perigee altitude
474.564 km
Semi-major axis
6,853.448 km
Eccentricity
0.00011
Inclination
53.1622°
RAAN
84.1287°
Arg. of periapsis
68.3287°
True anomaly
291.7714°
Mean anomaly
291.783°
Eccentric anomaly
291.7772°
Mean motion
3.82542 °/min
Orbital period
94.11 mins
BSTAR
0.0017522
Loading maneuver chart data...
Computing Atmospheric mass density...
Loading historical data...
Loading historical data...
Loading historical data...
Loading historical data...
Loading historical data...
Loading historical data...
Loading historical data...

Documentation

Showing up to 5 results
|